Temperature
21 21 20 19 18 19 21 24 27 27 28 29 29 28 27 26 24 22 22 23 23 23 22 21 21 21 21 21 21 20 20 20 20 20 20 20 20 20 20 20 20 19 19 19 19 19 19 19 19
22 21 20 19 19 21 23 26 27 28 29 29 29 28 27 25 23 22 22 23 23 23 22 22 21 21 21 21 21 20 20 20 20 20 19 19 19 19 19 20 20 19 19 19 19 19 19 19 19
21 20 20 19 20 22 25 27 28 29 29 29 28 28 27 26 24 23 23 23 23 23 22 22 21 21 21 21 21 20 20 20 20 20 19 19 19 19 19 19 20 19 19 19 19 19 20 20 20
21 20 20 19 22 24 27 28 28 28 29 28 28 26 26 26 25 24 24 23 23 23 22 22 22 22 21 21 21 21 20 20 20 20 20 19 19 19 19 19 19 19 19 19 19 19 20 20 20
21 21 20 20 23 27 29 29 29 27 27 27 26 25 25 25 25 24 24 24 24 23 22 22 22 22 22 21 21 21 21 20 20 20 20 20 19 19 19 19 19 19 19 19 19 20 20 20 20
21 21 21 22 25 28 29 29 28 27 27 26 26 25 25 24 24 24 24 24 24 24 23 22 22 22 22 21 21 21 21 21 20 20 20 20 20 20 19 19 19 19 19 19 19 19 20 20 20
22 21 22 24 26 28 29 28 27 26 25 25 25 24 25 24 24 23 23 23 23 23 23 22 22 22 22 21 21 21 21 21 20 20 20 20 20 20 20 20 20 19 19 19 19 19 20 20 20
24 21 23 24 26 27 28 27 25 25 24 24 25 23 24 24 23 23 23 23 22 22 22 22 22 21 21 21 21 20 20 20 20 20 20 20 20 20 20 20 20 19 19 19 19 19 19 20 20
25 21 21 24 26 27 27 26 25 24 23 23 23 23 24 24 23 22 22 22 21 21 21 21 21 21 20 20 20 20 20 20 20 20 20 20 19 19 19 19 19 19 19 19 19 19 19 19 19
24 20 22 25 27 27 26 25 24 23 22 21 22 23 23 23 23 22 21 21 21 21 20 20 20 20 20 20 19 19 19 19 19 19 19 19 19 19 19 19 19 18 18 18 18 18 18 19 19
24 23 24 26 28 27 25 24 23 22 21 20 21 21 22 22 22 21 20 20 20 20 20 19 19 19 20 19 19 19 19 19 19 19 19 18 18 19 19 18 18 18 18 18 18 18 18 18 18
25 25 27 28 28 27 25 23 22 21 20 20 20 20 21 21 20 20 20 19 19 19 19 19 19 19 19 19 19 19 19 19 19 18 18 18 18 18 18 18 18 18 18 17 17 17 17 17 17
25 26 27 27 27 26 24 22 21 20 19 19 20 20 19 19 19 19 19 19 19 19 19 19 19 19 19 18 18 18 18 18 18 18 18 18 18 18 18 17 17 17 17 17 17 17 17 17 17
26 27 26 26 26 25 23 21 20 20 19 19 19 18 18 19 19 19 19 19 19 19 19 19 19 18 18 18 18 18 18 18 18 18 18 18 17 17 17 17 17 17 17 17 17 17 16 16 16
28 25 25 25 25 24 23 20 20 19 19 19 18 18 18 18 18 18 18 18 18 18 18 18 18 18 18 18 18 18 18 17 17 17 17 17 17 17 17 17 17 17 17 17 16 16 16 16 16
25 24 23 24 23 23 22 19 20 19 19 18 18 18 18 18 18 18 18 18 18 18 18 18 18 18 18 18 18 17 17 17 17 17 17 16 16 16 16 16 16 16 16 16 16 16 16 16 16
23 22 23 23 23 23 21 19 19 19 19 19 18 18 18 17 17 17 18 18 18 18 18 18 18 18 18 18 17 17 17 16 16 16 16 16 16 16 16 16 16 15 15 15 15 15 15 15 15
22 23 23 22 22 21 19 18 18 18 19 18 18 18 18 18 18 18 18 18 18 18 18 18 18 18 17 17 17 17 16 16 16 15 15 15 15 15 15 15 15 15 15 15 15 15 15 15 15
24 23 22 22 22 20 19 18 18 18 18 18 18 18 18 18 18 18 18 18 18 18 18 18 18 17 17 17 16 16 16 15 15 15 14 14 14 14 14 14 14 14 14 14 14 14 14 14 14
24 23 21 21 22 20 18 18 18 17 17 17 18 18 19 18 18 18 18 18 18 18 18 17 17 17 16 16 16 15 15 14 14 14 14 13 13 13 13 13 13 14 14 14 14 14 14 14 14
23 22 22 21 20 20 19 17 17 17 17 18 19 19 19 19 19 19 19 18 18 18 18 17 17 16 16 15 15 15 14 14 14 14 13 13 13 13 13 13 13 13 13 13 13 13 13 13 13
23 23 23 22 19 17 18 17 17 16 17 18 19 19 19 19 19 19 19 19 19 18 18 17 17 16 15 15 14 14 14 13 13 12 12 12 12 13 13 13 13 13 13 13 13 13 13 13 13
23 24 23 21 18 17 17 17 16 16 16 17 18 19 20 20 20 20 19 19 19 18 18 17 16 16 15 14 14 14 13 12 12 12 12 12 12 12 12 12 12 12 12 12 12 12 13 13 13
24 22 20 18 17 17 17 17 17 15 16 17 18 20 20 20 20 20 19 19 18 18 17 17 16 15 15 14 13 13 12 12 12 11 11 11 11 12 12 12 12 12 12 12 12 12 12 12 12
23 20 19 19 17 17 16 17 16 17 17 18 18 20 20 21 20 20 19 19 18 18 17 16 16 15 14 13 13 12 12 11 11 11 11 11 11 11 11 11 11 11 11 11 11 11 11 12 12
23 21 20 20 18 16 17 17 16 18 18 19 19 20 20 20 20 20 19 18 18 17 17 16 15 14 14 13 12 12 12 11 11 11 10 10 10 10 10 10 10 11 11 11 11 11 11 11 11
25 22 20 18 17 16 17 17 18 19 19 19 20 20 20 20 19 19 19 18 17 17 16 15 14 14 13 12 12 11 11 11 10 10 10 10 10 10 10 10 10 10 10 10 10 10 10 11 11
25 23 19 18 18 18 18 17 17 19 19 19 19 20 20 19 19 19 18 18 17 16 15 15 14 13 12 12 11 11 11 10 10 10 10 10 9 9 9 9 9 9 10 10 10 10 10 10 10
25 24 20 18 18 18 18 18 19 18 18 18 18 20 20 19 19 19 18 17 16 16 15 14 13 12 12 12 11 11 11 10 10 9 9 9 9 9 9 9 9 9 9 9 9 9 10 10 10
25 24 20 20 20 18 17 18 20 18 18 19 20 20 20 19 19 18 18 17 16 15 14 13 13 12 12 11 11 11 10 10 10 9 9 9 8 8 8 8 8 8 8 9 9 9 9 9 9
Wind_Speed
16 13 4 2 1 2 5 6 3 2 3 7 11 11 9 7 5 6 3 14 18 18 17 19 19 18 19 19 18 17 17 16 16 15 15 15 15 14 14 14 13 13 13 12 12 11 11 11 11
13 8 3 1 1 2 6 5 2 1 7 11 12 11 9 8 9 10 7 14 18 16 16 17 19 18 18 18 18 17 16 16 15 15 14 14 13 13 13 12 12 12 12 12 12 11 11 11 11
10 6 2 2 3 4 5 4 3 3 7 7 6 7 6 6 9 7 10 17 16 13 15 18 19 18 18 18 17 16 16 15 15 14 14 14 13 13 12 12 11 11 11 12 11 11 11 10 10
5 2 1 2 8 9 8 8 2 7 9 9 9 7 5 4 6 11 18 18 17 12 14 18 19 18 17 17 17 16 15 14 14 14 14 13 13 12 12 12 11 11 11 11 12 12 11 11 10
3 3 2 4 7 8 7 5 8 11 6 10 12 7 5 6 17 21 19 18 17 13 13 17 19 18 17 16 16 15 14 13 13 13 13 12 12 12 11 11 11 11 11 11 12 12 12 11 11
2 2 1 5 8 9 3 5 15 17 13 9 9 7 4 9 16 17 17 16 16 15 12 15 18 18 17 16 15 14 14 13 13 12 12 12 11 11 11 11 12 12 12 12 12 13 13 13 12
3 2 4 5 8 7 4 8 12 13 11 6 5 6 4 6 10 14 15 15 14 13 10 10 14 15 16 15 15 14 13 13 12 12 11 11 11 11 11 12 13 13 13 13 13 14 14 14 14
5 1 4 4 5 5 5 9 11 12 9 6 5 6 2 2 8 15 14 13 12 10 9 7 9 11 12 13 14 14 13 12 12 12 11 11 11 11 12 12 13 14 15 15 16 16 16 16 16
1 1 4 4 3 4 4 10 9 10 12 10 8 6 5 6 13 15 13 11 10 10 7 6 6 7 9 9 11 12 12 12 11 11 11 11 10 10 11 13 14 16 17 17 17 18 17 17 17
4 4 8 6 4 2 4 9 8 9 13 9 9 11 12 13 13 12 11 11 10 9 8 6 6 6 8 8 9 8 9 10 10 10 10 10 10 10 12 13 16 18 19 20 20 19 19 17 14
5 7 9 11 8 3 5 8 6 10 9 7 8 9 12 14 14 12 11 10 8 8 8 6 4 4 5 3 5 4 5 6 8 9 10 9 8 9 9 8 10 13 16 16 17 18 16 14 12
6 11 10 9 6 3 6 7 9 10 9 11 12 12 13 14 12 12 11 10 9 9 9 6 5 5 4 4 3 2 1 2 3 4 5 4 3 3 4 4 6 7 8 9 10 9 12 13 14
8 11 10 6 3 7 13 13 13 11 13 14 15 15 14 14 12 11 11 10 9 9 8 7 7 6 4 4 2 3 2 2 2 2 2 3 2 2 2 3 4 5 6 5 5 6 8 9 10
6 4 3 3 4 7 15 11 8 8 11 13 14 13 11 11 11 11 10 9 8 8 7 7 7 5 5 5 4 3 3 3 3 3 3 3 2 0 1 2 3 3 4 5 5 5 7 8 8
4 3 5 6 6 4 10 12 8 7 10 11 12 11 11 9 10 10 8 7 7 6 5 6 7 6 7 6 5 4 4 5 3 3 4 4 3 2 1 2 3 3 4 4 3 4 4 6 8
5 5 4 6 6 5 10 7 5 5 9 9 9 10 9 8 8 8 8 7 6 6 6 6 7 8 7 6 5 4 5 4 3 3 3 4 4 3 2 2 3 4 4 2 3 3 4 5 6
6 3 1 3 7 5 8 5 3 5 8 7 6 7 8 7 7 7 7 7 6 6 6 6 6 6 6 6 5 4 4 4 3 2 1 1 2 2 2 1 2 3 2 3 4 3 3 4 5
4 2 2 2 3 8 8 4 3 3 7 4 4 5 6 6 7 7 7 7 7 6 6 5 5 5 5 4 4 4 5 4 3 3 2 1 1 1 1 1 2 2 2 3 3 4 4 4 5
1 1 1 0 3 7 7 5 3 4 4 1 2 5 6 6 7 8 8 8 7 5 5 5 5 3 3 2 2 2 3 4 4 3 4 3 3 3 2 2 3 2 2 3 4 3 4 4 3
2 1 1 1 3 4 6 6 2 2 1 4 5 7 8 7 6 7 8 8 7 6 6 6 5 4 3 2 1 1 1 2 2 2 4 4 5 5 4 4 4 3 2 3 3 2 3 3 2
1 4 6 4 4 4 4 2 2 2 3 5 7 8 9 11 10 9 8 8 7 7 7 7 7 5 4 3 2 2 2 3 4 3 3 4 7 8 6 5 5 4 3 3 3 3 2 3 3
4 6 8 8 6 2 1 2 4 3 4 5 7 7 9 10 9 8 8 8 8 7 6 6 6 5 4 3 2 2 1 2 3 3 4 6 7 7 7 5 4 4 3 4 4 2 2 2 3
5 5 7 8 6 4 2 1 5 2 5 6 7 8 9 10 10 10 8 7 6 5 5 5 5 4 3 3 3 2 2 3 3 3 5 6 6 6 6 5 4 4 3 4 4 3 3 2 3
10 9 7 6 5 3 1 0 5 4 6 5 6 7 8 8 7 5 4 4 3 3 4 4 5 3 3 3 2 2 3 4 4 4 5 5 4 5 7 6 4 4 4 5 5 5 4 4 3
6 6 4 5 5 1 2 1 7 7 7 8 8 7 7 5 5 5 5 4 4 5 4 4 4 2 2 2 2 3 4 4 4 4 4 4 4 4 6 6 4 4 4 5 5 5 5 5 4
2 8 6 3 3 1 2 3 7 8 6 8 9 7 4 4 6 6 6 6 5 5 4 3 3 2 2 3 4 4 4 3 3 4 4 5 4 5 6 6 5 6 6 6 5 5 6 5 5
2 1 7 7 4 3 2 4 8 6 6 5 5 5 6 7 7 7 7 6 5 4 3 3 3 2 3 4 4 4 3 4 5 5 5 5 5 5 6 6 6 7 6 6 6 5 7 6 6
4 5 6 5 4 2 2 4 5 7 6 4 6 7 7 7 6 6 5 5 4 3 3 3 3 3 4 4 4 3 4 5 5 5 6 6 6 6 7 7 7 7 7 7 6 6 7 7 7
2 3 6 4 6 6 4 6 7 10 9 9 8 9 9 8 7 6 5 4 3 2 2 2 3 3 4 5 4 5 5 6 6 6 7 7 7 7 7 8 8 8 8 8 7 7 7 7 8
3 4 6 4 0 4 5 5 3 9 10 10 9 8 8 8 7 6 5 3 2 2 3 4 4 5 5 5 5 5 6 6 6 7 8 7 8 8 8 8 8 9 9 8 8 9 9 8 8
Wind_Direction
151 146 144 118 89 244 257 252 209 302 36 57 71 76 75 57 91 129 89 139 137 143 145 143 140 138 136 135 136 136 134 132 131 129 129 128 128 129 131 133 135 137 138 139 138 136 134 132 131
150 148 138 111 219 285 266 243 212 167 134 110 81 74 69 71 87 109 112 135 137 138 138 141 139 137 135 136 137 139 140 139 139 138 138 139 139 141 142 143 146 148 149 150 149 148 146 144 144
160 169 151 189 239 229 260 254 188 99 118 100 84 57 57 86 111 124 136 138 133 131 134 140 138 137 135 136 138 141 144 146 147 147 149 150 152 155 156 157 160 162 163 162 160 159 157 157 158
150 152 288 239 251 247 247 249 183 99 68 63 86 60 41 48 108 131 138 138 132 129 134 141 139 138 137 138 140 143 146 150 153 156 158 161 164 167 169 171 174 176 176 174 171 169 168 169 172
110 144 232 272 264 262 252 211 119 95 85 82 86 83 49 40 113 131 140 140 135 134 138 142 142 142 141 141 143 146 149 154 158 162 165 169 173 178 180 182 185 189 190 188 183 181 180 181 184
143 162 207 272 283 295 300 112 101 101 99 90 86 91 71 103 122 139 140 138 138 140 140 144 146 146 146 147 149 152 156 161 165 170 175 178 182 186 191 193 195 199 201 200 196 192 190 191 195
174 185 236 272 298 321 30 85 88 98 83 58 85 82 63 100 131 140 134 131 132 136 137 140 149 152 153 155 158 161 164 168 173 179 184 189 193 198 203 207 208 209 210 210 207 203 200 199 201
183 123 293 299 307 330 35 74 78 76 75 63 64 97 118 106 124 128 123 122 125 131 139 141 148 153 157 163 168 170 173 178 184 189 194 199 206 212 218 220 220 219 218 218 215 213 210 209 208
168 66 264 263 294 319 45 86 74 66 82 65 55 76 89 90 110 117 118 119 128 135 141 144 150 157 162 168 178 180 183 190 195 202 207 210 217 225 231 233 232 231 229 226 222 219 217 215 216
144 189 238 237 268 309 58 86 101 84 76 67 62 57 66 70 90 108 124 125 125 133 142 148 158 167 174 183 180 188 196 201 205 209 216 217 219 227 235 239 241 240 239 235 230 226 223 221 220
202 222 252 270 267 185 104 74 70 111 83 88 100 86 74 72 80 92 98 103 104 108 118 122 124 132 150 148 154 185 204 207 215 218 222 221 225 236 243 245 253 251 247 241 235 231 227 223 219
241 258 258 269 271 166 119 103 75 76 104 99 92 89 86 86 87 92 94 90 92 93 92 92 91 82 86 104 132 157 180 194 202 213 215 202 217 242 251 251 254 252 247 238 232 226 226 226 225
250 262 273 284 15 94 99 95 96 88 99 96 92 85 85 87 85 86 87 84 84 85 78 71 66 66 70 71 56 65 60 86 112 127 162 165 184 244 263 269 273 269 256 242 236 230 232 231 229
255 280 311 343 90 96 101 92 84 95 102 98 94 90 88 89 91 89 84 79 78 83 84 79 71 62 62 63 59 54 56 64 63 65 87 114 134 193 294 301 297 286 272 255 243 239 238 238 235
309 343 7 28 61 82 93 63 78 110 100 95 96 96 94 91 91 95 102 100 90 81 80 82 74 58 55 45 38 46 43 50 45 44 65 78 84 72 16 325 314 305 299 283 264 256 248 246 242
1 31 23 4 38 55 83 88 86 88 94 94 100 102 99 96 98 101 106 106 103 93 80 69 74 61 54 46 35 30 35 39 35 36 51 59 64 60 46 358 323 311 304 289 274 258 252 253 248
18 21 358 4 24 54 80 115 106 74 86 94 100 110 111 109 107 114 117 120 122 118 110 93 81 73 66 54 45 35 29 22 9 7 19 40 55 63 57 357 315 322 314 300 292 281 260 263 260
301 323 16 26 17 64 76 90 79 74 78 94 126 133 130 133 143 148 145 145 144 144 135 121 102 89 80 58 42 27 18 2 351 332 297 290 298 338 23 298 301 310 305 298 288 284 279 263 262
174 104 103 129 47 70 82 79 42 47 61 77 162 160 158 164 172 169 171 168 164 163 152 147 138 128 103 70 56 31 356 337 339 329 317 314 303 298 288 287 292 296 285 284 286 281 285 278 266
60 123 171 73 66 82 93 82 57 79 191 231 214 192 181 183 187 190 191 188 185 183 175 168 165 158 144 137 141 162 239 295 305 333 340 326 310 299 289 268 265 267 272 295 297 279 283 280 271
280 190 189 152 95 67 99 41 330 261 234 227 215 203 190 190 197 202 198 194 191 194 189 179 176 167 163 146 106 38 17 354 352 343 328 317 311 300 289 271 259 247 233 254 269 264 269 281 286
226 209 181 159 131 84 128 202 254 257 262 235 219 209 204 204 202 207 204 197 196 199 185 173 170 166 167 153 141 149 182 275 269 275 290 305 311 311 307 291 274 249 233 240 256 252 244 265 284
194 150 133 135 128 101 19 127 275 274 254 248 241 229 214 208 202 205 204 193 188 178 165 161 156 164 175 171 172 179 233 246 268 293 311 315 319 323 327 316 295 267 249 249 253 258 255 241 252
124 92 71 65 80 69 312 138 278 238 233 256 250 237 221 205 195 186 167 145 133 119 123 136 144 170 196 196 207 217 248 264 286 304 310 312 314 318 323 324 320 298 276 261 257 254 257 254 254
109 101 55 17 25 298 285 266 263 257 241 236 250 244 226 196 166 152 137 117 111 111 117 130 144 180 222 226 254 260 259 259 264 274 279 287 296 301 303 316 316 308 287 274 263 262 262 254 254
150 131 146 180 191 242 296 254 267 276 262 241 237 234 198 149 138 133 130 127 128 128 128 138 154 198 244 257 269 273 275 256 254 258 258 268 269 272 281 293 297 299 297 291 273 263 263 257 251
83 99 152 127 103 106 260 287 298 283 274 240 203 164 150 140 136 135 139 141 143 137 148 160 169 219 258 265 271 277 270 258 262 270 269 270 270 277 285 289 294 295 295 292 286 268 263 261 254
120 133 85 94 123 129 225 236 231 232 222 197 158 151 150 148 144 143 150 156 161 164 173 180 192 226 252 264 263 256 258 262 266 272 278 277 277 279 287 287 286 287 287 285 281 276 268 260 257
21 64 100 109 139 142 191 253 223 196 186 166 168 169 166 162 161 165 168 171 175 180 194 220 245 262 273 267 259 263 266 267 269 268 268 268 270 273 274 275 277 279 280 280 278 275 276 267 263
178 172 138 128 227 138 147 263 270 164 166 161 170 176 171 166 169 172 175 183 202 228 249 254 259 264 259 253 253 259 265 269 271 269 267 265 265 266 265 267 268 270 274 271 269 272 277 269 265
Height
1531 1533 1535 1538 1539 1540 1533 1514 1502 1497 1495 1493 1491 1492 1496 1500 1506 1516 1513 1514 1516 1518 1521 1524 1527 1530 1532 1534 1535 1537 1538 1540 1541 1542 1543 1544 1545 1546 1547 1548 1549 1550 1551 1552 1553 1553 1554 1555 1555
1531 1533 1537 1538 1540 1541 1528 1506 1501 1497 1495 1493 1494 1496 1499 1505 1507 1509 1512 1516 1518 1519 1522 1525 1528 1530 1532 1534 1536 1538 1539 1540 1541 1542 1543 1544 1545 1546 1547 1548 1549 1550 1551 1552 1552 1553 1554 1555 1556
1532 1534 1536 1537 1536 1534 1519 1501 1496 1494 1494 1491 1496 1500 1503 1509 1511 1512 1514 1517 1519 1521 1524 1526 1529 1531 1533 1535 1536 1538 1539 1540 1541 1542 1543 1544 1545 1546 1547 1548 1549 1549 1550 1551 1552 1553 1554 1555 1556
1532 1535 1535 1537 1533 1517 1506 1497 1494 1494 1496 1496 1497 1504 1508 1512 1512 1514 1516 1518 1520 1523 1525 1528 1530 1532 1533 1535 1537 1538 1539 1540 1541 1542 1543 1544 1544 1545 1546 1547 1548 1549 1550 1551 1552 1553 1554 1555 1556
1531 1533 1536 1536 1524 1506 1496 1493 1493 1494 1497 1500 1499 1507 1512 1513 1514 1516 1518 1520 1521 1523 1527 1529 1531 1533 1534 1536 1537 1538 1539 1540 1541 1542 1542 1543 1544 1545 1545 1546 1547 1548 1549 1550 1551 1552 1553 1554 1556
1531 1530 1538 1536 1520 1503 1496 1494 1493 1497 1500 1501 1503 1508 1515 1517 1517 1519 1521 1522 1523 1525 1527 1530 1532 1534 1535 1536 1537 1538 1539 1540 1540 1541 1542 1542 1543 1544 1544 1545 1546 1547 1548 1549 1550 1551 1552 1553 1554
1529 1529 1533 1527 1519 1507 1499 1497 1498 1499 1501 1504 1505 1510 1516 1520 1520 1521 1523 1524 1525 1527 1529 1531 1533 1534 1536 1537 1538 1538 1539 1539 1540 1541 1541 1542 1542 1543 1543 1544 1545 1546 1546 1547 1548 1549 1550 1551 1553
1525 1527 1529 1526 1519 1512 1503 1500 1504 1502 1506 1508 1508 1512 1517 1520 1521 1522 1525 1526 1527 1529 1530 1532 1534 1535 1536 1537 1538 1539 1539 1539 1540 1540 1541 1541 1541 1542 1542 1543 1543 1544 1544 1545 1546 1547 1548 1549 1551
1523 1529 1533 1524 1516 1511 1506 1503 1507 1509 1509 1511 1512 1514 1517 1520 1521 1523 1525 1527 1528 1529 1531 1533 1534 1535 1536 1537 1538 1538 1539 1539 1539 1539 1540 1540 1540 1541 1541 1541 1541 1542 1542 1543 1544 1545 1546 1547 1548
1520 1530 1523 1513 1509 1509 1507 1505 1508 1513 1513 1515 1516 1517 1519 1521 1522 1524 1526 1527 1528 1529 1531 1532 1534 1535 1536 1537 1538 1538 1538 1538 1538 1538 1538 1538 1539 1539 1539 1539 1539 1539 1539 1540 1540 1541 1542 1543 1544
1516 1518 1510 1507 1506 1507 1506 1508 1509 1512 1518 1520 1520 1520 1521 1522 1522 1525 1527 1528 1528 1529 1531 1533 1533 1534 1535 1536 1537 1537 1537 1537 1537 1537 1537 1537 1537 1537 1536 1536 1536 1536 1536 1536 1536 1537 1538 1538 1539
1513 1508 1506 1503 1503 1504 1506 1509 1513 1515 1520 1522 1521 1522 1523 1524 1526 1526 1527 1528 1529 1531 1532 1532 1533 1534 1534 1535 1536 1536 1535 1535 1535 1535 1534 1534 1534 1534 1533 1533 1533 1532 1532 1532 1532 1532 1532 1533 1533
1509 1505 1502 1502 1501 1503 1506 1511 1515 1522 1523 1523 1523 1524 1525 1526 1527 1527 1527 1529 1530 1531 1532 1532 1533 1534 1534 1534 1534 1534 1534 1533 1532 1532 1532 1531 1531 1530 1530 1529 1529 1528 1527 1526 1527 1526 1527 1527 1527
1505 1503 1502 1502 1501 1505 1508 1515 1518 1526 1525 1525 1525 1525 1527 1527 1528 1528 1529 1530 1531 1531 1531 1532 1532 1533 1533 1533 1533 1532 1532 1532 1531 1530 1530 1529 1528 1527 1527 1526 1524 1523 1522 1521 1521 1521 1521 1520 1521
1502 1503 1503 1503 1503 1507 1508 1520 1524 1527 1527 1527 1527 1527 1529 1529 1530 1530 1531 1531 1532 1532 1532 1532 1533 1533 1532 1532 1532 1531 1531 1530 1529 1528 1527 1526 1525 1524 1523 1522 1521 1519 1518 1517 1516 1515 1514 1514 1514
1503 1508 1515 1510 1507 1508 1513 1532 1529 1528 1528 1529 1530 1530 1530 1531 1532 1532 1532 1532 1533 1533 1533 1533 1533 1532 1532 1532 1531 1530 1529 1528 1527 1526 1525 1523 1522 1521 1520 1518 1517 1515 1514 1512 1511 1510 1509 1508 1507
1514 1521 1520 1515 1511 1511 1517 1530 1529 1529 1528 1531 1532 1532 1532 1533 1533 1534 1534 1534 1534 1534 1534 1533 1533 1533 1532 1532 1531 1529 1528 1527 1525 1524 1522 1521 1519 1518 1516 1514 1513 1511 1509 1508 1507 1505 1504 1502 1501
1524 1521 1520 1520 1516 1516 1523 1529 1530 1530 1529 1532 1533 1534 1534 1534 1534 1534 1535 1535 1534 1534 1534 1533 1533 1532 1532 1531 1529 1528 1526 1525 1523 1521 1519 1518 1517 1515 1513 1511 1510 1508 1506 1504 1503 1501 1500 1498 1496
1512 1516 1520 1519 1515 1521 1527 1530 1530 1528 1530 1533 1534 1534 1534 1534 1534 1534 1534 1534 1534 1533 1533 1532 1532 1531 1530 1529 1527 1525 1523 1521 1520 1518 1516 1515 1514 1512 1510 1508 1507 1505 1503 1501 1499 1497 1496 1494 1493
1509 1517 1520 1518 1516 1522 1529 1531 1530 1528 1530 1532 1532 1532 1533 1533 1532 1532 1532 1531 1531 1531 1531 1530 1529 1528 1527 1525 1524 1522 1520 1518 1516 1515 1513 1512 1510 1508 1507 1505 1503 1502 1500 1498 1497 1494 1493 1491 1490
1510 1516 1518 1522 1523 1525 1530 1537 1533 1529 1528 1529 1530 1530 1530 1530 1530 1530 1530 1529 1529 1529 1528 1528 1526 1525 1524 1523 1521 1519 1517 1515 1513 1511 1509 1507 1506 1504 1503 1501 1500 1498 1497 1496 1494 1492 1490 1489 1487
1514 1505 1508 1516 1529 1540 1535 1547 1538 1532 1530 1527 1527 1527 1528 1528 1528 1528 1528 1528 1528 1527 1527 1526 1524 1523 1522 1520 1518 1516 1513 1510 1508 1506 1504 1503 1501 1500 1498 1497 1496 1495 1494 1493 1491 1490 1488 1487 1485
1504 1500 1507 1517 1530 1541 1541 1545 1541 1533 1531 1526 1525 1525 1526 1526 1526 1526 1526 1527 1527 1526 1525 1524 1523 1521 1520 1518 1515 1513 1510 1507 1505 1503 1500 1499 1497 1496 1495 1493 1492 1491 1490 1489 1488 1487 1486 1484 1483
1498 1507 1517 1525 1534 1549 1544 1546 1542 1533 1528 1524 1523 1523 1523 1523 1524 1525 1526 1526 1525 1525 1524 1522 1521 1519 1517 1515 1513 1510 1507 1504 1502 1499 1497 1495 1494 1492 1491 1489 1488 1487 1486 1485 1484 1483 1482 1481 1480
1500 1519 1538 1542 1552 1553 1544 1543 1539 1523 1520 1520 1520 1521 1521 1522 1522 1523 1524 1524 1524 1523 1522 1520 1519 1517 1514 1512 1510 1507 1504 1501 1498 1496 1493 1491 1489 1487 1486 1485 1483 1482 1481 1481 1480 1479 1478 1477 1476
1500 1511 1534 1545 1552 1553 1545 1545 1533 1518 1517 1517 1518 1519 1520 1521 1521 1522 1522 1522 1522 1520 1519 1517 1515 1513 1511 1509 1506 1503 1501 1498 1495 1493 1490 1487 1485 1483 1481 1480 1479 1477 1476 1476 1475 1474 1473 1473 1472
1498 1507 1510 1531 1543 1554 1549 1541 1528 1517 1516 1515 1517 1518 1518 1519 1520 1520 1520 1520 1519 1518 1516 1514 1512 1510 1508 1505 1502 1500 1497 1495 1491 1488 1486 1483 1481 1478 1477 1475 1474 1472 1471 1470 1469 1468 1467 1467 1467
1492 1498 1514 1530 1547 1553 1547 1542 1537 1521 1518 1516 1516 1517 1518 1519 1519 1519 1518 1518 1516 1515 1513 1511 1509 1507 1504 1501 1499 1496 1494 1491 1487 1484 1481 1479 1477 1474 1472 1470 1468 1467 1465 1464 1463 1462 1461 1461 1461
1496 1499 1511 1525 1530 1546 1552 1543 1515 1515 1514 1515 1515 1516 1516 1517 1517 1517 1516 1515 1514 1512 1510 1508 1506 1503 1500 1498 1495 1492 1489 1486 1483 1480 1477 1475 1472 1470 1467 1465 1463 1461 1460 1458 1457 1456 1455 1454 1454
1491 1496 1507 1524 1527 1532 1542 1539 1507 1509 1510 1511 1513 1514 1514 1515 1515 1514 1513 1512 1511 1509 1507 1504 1502 1499 1496 1494 1491 1488 1485 1482 1478 1475 1472 1470 1467 1465 1462 1460 1457 1455 1454 1452 1451 1450 1449 1448 1447